Погода в Свято-Покровском

Украина / Донецкая область     48°49′47″N   38°03′23″E
темп.,
°C
ветер,
м/с
пор.,
м/с
влажн.,
%
обл.,
%
осадки,
мм/ч
давл.,
гПа
погр.,
м
25 июня, сб
сб2500:00+18в226587 0.0 101014
03:00+15всв227723 0.0 101111
06:00+15ссв239123 0.0 1012119
09:00+21всв336693 0.0 1013641
12:00+24вюв3448100 0.1 10121855
15:00+24ююв334982 0.1 10121001
18:00+20св4774100 1.1 1013169
21:00+17всв2596100 6.3 1014152
26 июня, вс
вс2600:00+17ссв349399 0.4 1015105
03:00+16с259611 1.9 1014129
06:00+17св2992100 0.1 1015300
09:00+21всв51076100 0.1 1016632
12:00+25в6952100 0.0 10161745
15:00+24всв3857100 0.0 1015529
18:00+24всв51054100 0.0 1016535
21:00+21св5116499 0.0 1016257
27 июня, пн
пн2700:00+20св5136537 0.0 1017415
03:00+17св410807 0.0 1018224
06:00+17всв5127849 0.0 1019405
09:00+22всв79547 0.0 1019916
12:00+26всв78395 0.0 10191550
15:00+27всв78334 0.0 10181734
18:00+26всв584167 0.0 1018751
21:00+20св485596 0.0 1018134
28 июня, вт
вт2800:00+18св386995 0.0 1018121
03:00+16св3373100 0.0 101827
06:00+17ссв247390 0.0 1018116
09:00+23св355476 0.0 1017605
12:00+28всв464629 0.0 10161519
15:00+27св4759100 0.1 1016794
18:00+26всв356122 0.1 1015335
21:00+23св4106618 0.1 1016251
29 июня, ср
ср2900:00+21всв4117212 0.0 1017305
03:00+18св511824 0.0 1018260
06:00+18св4107513 0.0 1019301
09:00+23всв57585 0.0 1018775
12:00+26всв66405 0.0 10181621
15:00+27св66334 0.0 10182029
18:00+24св67411 0.0 10181099
21:00+19св612535 0.0 1019407